Regional Weather Roundup
Issued by NWS Charleston, SC

Current Version | Previous Version | Graphics & Text | Print | Product List | Glossary On
Versions: 1 2 3 4 5 6 7 8 9 10 11 12 13 14 15 16 17 18 19 20 21 22 23 24 25 26 27 28 29 30 31 32 33 34 35 36 37 38 39 40 41 42 43 44 45 46 47 48 49 50
000 ASUS42 KCHS 171212 RWRCHS REGIONAL WEATHER ROUNDUP NATIONAL WEATHER SERVICE CHARLESTON SC 800 AM EDT THU AUG 17 2017 NOTE: "FAIR" INDICATES FEW OR NO CLOUDS BELOW 12,000 FEET WITH NO SIGNIFICANT WEATHER AND/OR OBSTRUCTIONS TO VISIBILITY. NOT ALL STATIONS ARE QUALITY CONTROLLED. USE DATA WITH CAUTION... ESPECIALLY DEWPOINT OBSERVATIONS. SCZ027-030-031-034>040-042>050-171300- ...SOUTHEAST SOUTH CAROLINA... CITY SKY/WX TMP DP RH WIND PRES REMARKS N CHARLESTON MOSUNNY 82 77 84 W7 30.02R HX 90 6HR MIN TEMP: 80; 6HR MAX TEMP: 82; WATERFRONT PRK N/A N/A N/A N/A CALM 29.86R JOHNS ISLAND FAIR 82 81 94 CALM 30.03R HX 95 PINOPOLIS N/A 82 81 94 VRB2 29.95R HX 95 MONCKS CORNER FAIR 79 77 94 CALM 30.03R SUMMERVILLE FAIR 79 77 94 CALM 30.04R BEAUFORT MCAS SUNNY 82 79 90 SW5 30.03R HX 92 6HR MIN TEMP: 79; 6HR MAX TEMP: 82; BEAUFORT ARPT FAIR 82 77 83 SW3 30.03R HAZE HX 91 HILTON HEAD IS SUNNY 82 77 83 SW6 30.05R HX 91 WALTERBORO SUNNY 79 77 94 CALM 30.04R ALLENDALE NOT AVBL ...SOUTHERN MIDLANDS AND PEE DEE... CITY SKY/WX TMP DP RH WIND PRES REMARKS GEORGETOWN FAIR 79 77 94 CALM 30.03S KINGSTREE FAIR 77 75 94 CALM 30.03R FOG ORANGEBURG SUNNY 78 76 93 SW3 30.04R 6HR MIN TEMP: 76; 6HR MAX TEMP: 79; BARNWELL FAIR 81 79 94 CALM 30.05R AIKEN FAIR 77 73 88 CALM 30.08S MANNING FAIR 79 77 94 SW3 30.03R COLUMBIA MOSUNNY 80 74 81 CALM 30.02R 6HR MIN TEMP: 77; 6HR MAX TEMP: 81; SUMTER SUNNY 80 75 86 SW3 30.00R 6HR MIN TEMP: 76; 6HR MAX TEMP: 80; FLORENCE SUNNY 77 76 96 CALM 30.03R 6HR MIN TEMP: 75; 6HR MAX TEMP: 77; MYRTLE BEACH SUNNY 81 79 94 CALM 30.03R N MYRTLE BEACH SUNNY 82 80 94 CALM 30.02R HX 94 6HR MIN TEMP: 77; 6HR MAX TEMP: 82; $$ GAZ063-065-086>088-099>101-113>116-118-119-134>141-150-171300- ...SOUTHEAST GEORGIA... CITY SKY/WX TMP DP RH WIND PRES REMARKS SAVANNAH ARPT MOSUNNY 81 77 88 CALM 30.05R 6HR MIN TEMP: 78; 6HR MAX TEMP: 82; HUNTER AAF SUNNY 81 77 88 W3 30.02R 6HR MIN TEMP: 78; 6HR MAX TEMP: 82; 6HR PCP: TRACE; FORT STEWART SUNNY 80 75 85 CALM 30.03R 6HR MIN TEMP: 77; 6HR MAX TEMP: 80; STATESBORO SUNNY 80 77 90 CALM 30.05R SYLVANIA SUNNY 79 78 97 CALM 30.06R CLAXTON FAIR 79 77 94 CALM 30.06R ...CSRA...CENTRAL AND FAR SOUTHEAST GEORGIA... CITY SKY/WX TMP DP RH WIND PRES REMARKS THOMSON SUNNY 77 74 92 CALM 30.11R AUGUSTA-BUSH SUNNY 81 77 88 CALM 30.04R 6HR MIN TEMP: 77; 6HR MAX TEMP: 82; AUGUSTA-DANIEL SUNNY 82 73 74 CALM 30.06R SWAINSBORO FAIR 77 77 100 CALM 30.07R VIDALIA SUNNY 79 77 94 CALM 30.07R EASTMAN FAIR 78 78 100 CALM 30.10R HAZLEHURST FAIR 80 71 75 W3 30.07R ALMA SUNNY 79 75 87 CALM 30.07R 6HR MIN TEMP: 75; 6HR MAX TEMP: 80; WAYCROSS SUNNY 78 75 90 SW3 30.06S JESUP FAIR 79 73 83 CALM 30.06S BAXLEY FAIR 75 75 100 W3 30.07R BRUNSWICK SUNNY 81 73 78 W5 30.06S SAINT SIMONS SUNNY 82 77 84 W6 30.05R HX 90 6HR MIN TEMP: 80; 6HR MAX TEMP: 83; $$ SCZ027-028-034-036>038-045-046-048>050-GAZ119-141-171300- ...LAKE AND SUPPLEMENTAL COASTAL OBSERVATIONS... STATION/POSITION TIME TEMP WIND PRES WAVE SWELL AIR SEA DIR/SP/G HT/PER HT/PER/DIR (UTC) (F) (DEG/KT/KT) (MB) (FT/S) (FT/S/D) WINYAH BAY 1045 78 280/ 1 1016.0 LAKE MURRAY 1120 81 CALM / 1 1015.9 ACE BASIN NERRS 1045 79 CALM 1016.0 FORT PULASKI 1136 83 85 270/ 4/ 4 1017.6R SAPELO ISLAND 1100 82 CALM 1017.0 $$ ANZ835-935-AMZ111-154-330-350-352-354-370-450-454-472-171300- ...C-MAN AND BUOY OBSERVATIONS... STATION/POSITION TIME TEMP WIND PRES WAVE SWELL AIR SEA DIR/SP/G HT/PER HT/PER/DIR (UTC) (F) (DEG/KT/KT) (MB) (FT/S) (FT/S/D) BUOY 41004 1150 84 83 220/ 6/ 6 1016.3R 2/ 4 2/220/ 4 BUOY 41008 1150 85 84 260/ 8/ 8 1017.0R 1/ 4 2/160/ 4 FOLLY BEACH CMAN 1100 82 240/ 4/ 4 1017.0R CAPERS NEARSHORE 1108 82 85 250/ 6/ 8 1016.1R FRIPP NEARSHORE 1108 85 280/ 6/ 8 1016.4R STATION/POSITION TIME TEMP WIND PRES WAVE SWELL AIR SEA DIR/SP/G HT/PER HT/PER/DIR (UTC) (F) (DEG/KT/KT) (MB) (FT/S) (FT/S/D) 5E ST. MARYS GA 1130 83 N/A 1/ 8 FRYING PAN BUOY 1150 83 84 190/ 6/ 8 1016.7R 2/ 5 2/210/ 5 BUOY 41025 1150 79 82 20/ 6/ 6 1017.3R 2/ 8 2/120/ 8 CAPE LOOKOUT NC 1100 80 70/ 4/ 5 1016.7R BUOY 41002 1050 84 84 250/ 8/ 10 1017.3 3/ 6 3/240/ 6 BUOY 41010 1150 85 86 250/ 8/ 10 1018.8R 2/ 8 2/110/ 8 ST AUGUSTINE FL 1200 80 80 340/ 2/ 3 1018.2F $$

USA.gov is the U.S. government's official web portal to all federal, state and local government web resources and services.